[[{"header":{"parameterUnit":"m.s-1","parameterCategory":1,"la1":30.2991,"la2":30.254,"lo1":-89.0895,"lo2":-89.0444,"dy":0.0017,"dx":0.0017,"nx":28,"ny":28,"refTime":"2023-08-20T09:00:00:Z","depth":0,"parameterNumber":2,"parameterNumberName":"U-component_of_WINDS"},"data":[0,0,0,0,0,0,0,0,0,0,0,0,0,0,0,0,0,0,0,0,0,0,0,0,0,0,0,0,0,0,0,0,0,0,0,0,0,0,0,0,0,0,0,0,0,0,0,0,0,0,0,0,0,0,0,0,0,0,-2.383,-2.383,0,-2.3856,-2.3857,-2.3857,-2.3848,-2.3847,-2.3847,-2.3846,-2.3874,-2.3875,-2.3876,0,0,0,0,0,0,0,0,0,0,0,0,0,-2.3773,-2.3774,-2.383,-2.383,-2.383,-2.3856,-2.3857,-2.3857,-2.3848,-2.3847,-2.3847,-2.3846,-2.3873,-2.3875,-2.3877,0,0,0,0,0,0,0,0,0,0,0,0,0,-2.3798,-2.3774,-2.383,-2.3829,-2.3829,-2.3856,-2.3857,-2.3857,-2.3848,-2.3847,-2.3846,-2.3846,-2.3873,-2.3875,-2.3877,-2.3906,0,0,-2.3883,-2.3883,0,0,0,0,0,0,0,0,-2.3797,-2.38,-2.3829,-2.3829,-2.3829,-2.3848,-2.3847,-2.3874,-2.3848,-2.3841,-2.3846,-2.3845,-2.3866,-2.3868,-2.3875,-2.3907,-2.3909,-2.3883,-2.3884,-2.3885,-2.3885,0,0,0,0,0,0,0,-2.3795,-2.3799,-2.384,-2.3829,-2.383,-2.3828,-2.3831,-2.3852,-2.3858,-2.3842,-2.3841,-2.3844,-2.3866,-2.3874,-2.3876,-2.3909,-2.3883,-2.3884,-2.3886,-2.3886,-2.3968,-2.3969,0,0,0,0,0,0,-2.3793,-2.3798,-2.3839,-2.3841,-2.3811,-2.383,-2.3833,-2.3843,-2.3858,-2.3859,-2.3845,-2.3844,-2.3871,-2.3874,-2.3877,-2.3913,-2.3885,-2.3887,-2.3888,-2.3967,-2.3969,-2.397,0,0,0,0,0,0,-2.3792,-2.3797,-2.3838,-2.3819,-2.3824,-2.3832,-2.3843,-2.3844,-2.3851,-2.386,-2.3862,-2.3851,-2.387,-2.3874,-2.3899,-2.3914,-2.3887,-2.3889,-2.3966,-2.3968,-2.3969,-2.3985,0,0,0,0,0,0,-2.379,-2.3796,-2.3807,-2.382,-2.3825,-2.3859,-2.3844,-2.3845,-2.3855,-2.3853,-2.3867,-2.3868,-2.387,-2.3896,-2.3901,-2.3916,-2.3891,-2.3965,-2.3967,-2.3969,-2.3983,-2.3987,-2.399,0,0,0,0,0,-2.3788,-2.381,-2.3807,-2.3812,-2.3839,-2.386,-2.3864,-2.3865,-2.3856,-2.3867,-2.3873,-2.3868,-2.3912,-2.3899,-2.3904,-2.392,-2.3964,-2.3966,-2.3969,-2.3981,-2.3986,-2.399,0,0,0,0,0,0,-2.3798,-2.3811,-2.3809,-2.3835,-2.3847,-2.3859,-2.3872,-2.387,-2.3884,-2.3882,-2.3884,-2.3887,-2.3913,-2.3919,-2.3905,-2.395,-2.3937,-2.394,-2.3945,-2.3949,-2.3952,-2.395,-2.3892,0,0,0,0,0,-2.3804,-2.382,-2.3831,-2.3853,-2.3859,-2.3865,-2.3874,-2.3875,-2.3887,-2.3891,-2.3899,-2.3912,-2.3928,-2.3939,-2.3955,-2.3985,-2.3988,-2.3998,-2.4002,-2.4004,-2.4007,-2.4025,-2.4029,-2.3977,-2.3977,-2.3977,0,0,-2.3815,-2.3824,-2.3834,-2.3855,-2.3864,-2.3881,-2.3869,-2.3887,-2.39,-2.3894,-2.3918,-2.3925,-2.3939,-2.3967,-2.3979,-2.3973,-2.4023,-2.4007,-2.4009,-2.4011,-2.4027,-2.4032,-2.4037,-2.3979,-2.3979,-2.3978,0,0,-2.3843,-2.3852,-2.3872,-2.3881,-2.3896,-2.39,-2.3905,-2.3918,-2.3922,-2.3947,-2.3943,-2.3959,-2.3988,-2.3998,-2.4007,-2.4043,-2.4039,-2.4048,-2.4066,-2.4083,-2.4087,-2.409,-2.4104,-2.4108,-2.4051,-2.4051,-2.4051,0,-2.3855,-2.388,-2.3882,-2.3901,-2.3912,-2.3908,-2.3929,-2.3938,-2.3957,-2.3964,-2.3957,-2.3994,-2.4003,-2.4034,-2.4043,-2.405,-2.4057,-2.4046,-2.4086,-2.409,-2.4093,-2.4106,-2.4111,-2.4052,-2.4052,-2.4052,-2.4052,0,-2.3894,-2.3912,-2.3927,-2.3945,-2.3957,-2.3977,-2.3983,-2.3995,-2.3996,-2.4001,-2.4027,-2.4038,-2.4057,-2.4065,-2.4065,-2.4096,-2.4092,-2.4085,-2.4072,-2.4099,-2.4111,-2.4116,-2.4054,-2.4053,-2.4053,-2.4053,0,0,-2.3928,-2.3949,-2.3954,-2.3963,-2.398,-2.3994,-2.4015,-2.4033,-2.4044,-2.4058,-2.4076,-2.4101,-2.4096,-2.4107,-2.4108,-2.4123,-2.4152,-2.4115,-2.4116,-2.4122,-2.4189,-2.4193,-2.4198,-2.415,-2.4151,-2.4152,-2.4188,0,-2.3958,-2.3993,-2.3997,-2.4029,-2.4047,-2.4045,-2.4063,-2.4076,-2.4082,-2.4099,-2.4106,-2.4124,-2.4116,-2.4122,-2.4137,-2.4145,-2.4165,-2.4143,-2.4167,-2.4168,-2.4163,-2.4205,-2.4209,-2.4242,-2.4192,-2.4193,-2.4193,0,-2.3997,-2.4012,-2.4046,-2.4062,-2.407,-2.4086,-2.4104,-2.412,-2.4135,-2.4139,-2.4152,-2.4152,-2.4175,-2.4161,-2.4193,-2.4178,-2.4188,-2.4194,-2.4196,-2.4197,-2.4182,-2.4207,-2.4252,-2.4257,-2.4201,-2.42,-2.42,0,-2.4018,-2.4047,-2.4072,-2.408,-2.4099,-2.4111,-2.4119,-2.4134,-2.4145,-2.4162,-2.417,-2.4189,-2.4199,-2.4214,-2.422,-2.421,-2.4252,-2.4239,-2.4257,-2.4257,-2.4264,-2.4264,-2.4312,-2.4272,-2.4272,-2.4272,-2.4272,0,-2.4051,-2.4071,-2.4082,-2.4097,-2.4121,-2.4126,-2.415,-2.4158,-2.4172,-2.4189,-2.4189,-2.4206,-2.4213,-2.4231,-2.4236,-2.4262,-2.4267,-2.4271,-2.4272,-2.4271,-2.427,-2.4277,-2.4275,-2.4273,-2.4273,-2.4273,-2.4273,0,-2.4077,-2.4085,-2.4112,-2.4129,-2.4133,-2.415,-2.4165,-2.418,-2.4187,-2.421,-2.4215,-2.4227,-2.4248,-2.4256,-2.4282,-2.4286,-2.4316,-2.4316,-2.4311,-2.4311,-2.4328,-2.4327,-2.4382,-2.439,-2.4345,-2.4346,-2.4346,0,-2.4097,-2.4114,-2.4132,-2.4144,-2.4153,-2.4172,-2.4184,-2.4191,-2.4204,-2.4224,-2.4237,-2.4258,-2.4276,-2.4311,-2.4322,-2.4342,-2.4342,-2.436,-2.4345,-2.4344,-2.4342,-2.4341,-2.4343,-2.4362,-2.4363,-2.4363,-2.4363,0,-2.4132,-2.4136,-2.4153,-2.4173,-2.4187,-2.4203,-2.4218,-2.4228,-2.4237,-2.4252,-2.4274,-2.4288,-2.4315,-2.4337,-2.4359,-2.4368,-2.4368,-2.4368,-2.4374,-2.4372,-2.4369,-2.4371,-2.4318,-2.4367,-2.4366,-2.4366,-2.4366,-2.4366,-2.4156,-2.4171,-2.4187,-2.4207,-2.422,-2.4234,-2.425,-2.426,-2.4278,-2.4301,-2.4304,-2.4328,-2.4345,-2.4374,-2.4385,-2.4405,-2.44,-2.4408,-2.4409,-2.4411,-2.4413,-2.4366,-2.4409,-2.4409,-2.4409,-2.4409,-2.4409,0,-2.4191,-2.4202,-2.4221,-2.4242,-2.4258,-2.4257,-2.4275,-2.4288,-2.4309,-2.4325,-2.4343,-2.4369,-2.4391,-2.4405,-2.4427,-2.4441,-2.4441,-2.4446,-2.4445,-2.4448,-2.4415,-2.4409,-2.4446,-2.4446,-2.4446,-2.4446,-2.4446,-2.4446,-2.4212,-2.4237,-2.4243,-2.4275,-2.4286,-2.4309,-2.432,-2.4334,-2.4347,-2.4376,-2.4395,-2.4403,-2.4419,-2.4443,-2.4463,-2.4467,-2.4475,-2.4481,-2.4484,-2.4454,-2.445,-2.4446,-2.444,-2.4483,-2.4483,-2.4515,-2.4515,-2.4516]},{"header":{"parameterUnit":"m.s-1","parameterCategory":1,"la1":30.2991,"la2":30.254,"lo1":-89.0895,"lo2":-89.0444,"dy":0.0017,"dx":0.0017,"nx":28,"ny":28,"refTime":"2023-08-20T09:00:00:Z","depth":0,"parameterNumber":3,"parameterNumberName":"V-component_of_WINDS"},"data":[0,0,0,0,0,0,0,0,0,0,0,0,0,0,0,0,0,0,0,0,0,0,0,0,0,0,0,0,0,0,0,0,0,0,0,0,0,0,0,0,0,0,0,0,0,0,0,0,0,0,0,0,0,0,0,0,0,0,4.0905,4.0904,0,4.0888,4.0888,4.0888,4.0844,4.0843,4.0842,4.0842,4.0824,4.0825,4.0825,0,0,0,0,0,0,0,0,0,0,0,0,0,4.0899,4.0899,4.0905,4.0904,4.0904,4.0888,4.0888,4.0888,4.0845,4.0843,4.0842,4.0841,4.0824,4.0825,4.0825,0,0,0,0,0,0,0,0,0,0,0,0,0,4.0894,4.0899,4.0905,4.0881,4.0878,4.0888,4.0888,4.0888,4.0845,4.0843,4.0842,4.0841,4.0824,4.0825,4.0825,4.0857,0,0,4.0827,4.0827,0,0,0,0,0,0,0,0,4.0894,4.0894,4.0884,4.0882,4.088,4.0867,4.088,4.0877,4.0845,4.0857,4.0842,4.084,4.084,4.0839,4.0839,4.0856,4.0855,4.0827,4.0827,4.0828,4.0828,0,0,0,0,0,0,0,4.0894,4.0894,4.0898,4.0884,4.0881,4.0871,4.0869,4.0879,4.0857,4.0856,4.0853,4.0852,4.0838,4.0838,4.0838,4.0855,4.0827,4.0828,4.0828,4.0828,4.0898,4.09,0,0,0,0,0,0,4.0898,4.0895,4.0899,4.0898,4.0884,4.0872,4.087,4.0872,4.0856,4.0853,4.0853,4.085,4.0838,4.0837,4.0837,4.0873,4.0828,4.0828,4.0829,4.0897,4.0899,4.09,0,0,0,0,0,0,4.0898,4.0899,4.0899,4.0895,4.0895,4.0874,4.0877,4.0873,4.0873,4.0854,4.085,4.0857,4.0837,4.0836,4.0853,4.0872,4.0829,4.0829,4.0895,4.0897,4.0899,4.0946,0,0,0,0,0,0,4.0898,4.0899,4.0911,4.0896,4.0895,4.0915,4.0878,4.0874,4.0874,4.087,4.0857,4.0853,4.0836,4.0852,4.0853,4.0872,4.083,4.0893,4.0896,4.0899,4.0942,4.0949,4.0955,0,0,0,0,0,4.0898,4.0924,4.0912,4.0912,4.0909,4.0916,4.0915,4.0895,4.0876,4.0887,4.0876,4.0854,4.087,4.0854,4.0855,4.0874,4.0892,4.0895,4.0899,4.0939,4.0948,4.0955,0,0,0,0,0,0,4.0941,4.0922,4.0907,4.0929,4.0925,4.0908,4.0922,4.0904,4.0904,4.09,4.0875,4.0872,4.0892,4.0885,4.0867,4.0905,4.0878,4.0881,4.0908,4.0916,4.0922,4.0923,4.083,0,0,0,0,0,4.0953,4.096,4.0943,4.0964,4.0962,4.0943,4.0945,4.093,4.0924,4.0922,4.0911,4.0906,4.091,4.0913,4.0915,4.0942,4.0938,4.0956,4.0962,4.0968,4.0971,4.0984,4.0992,4.0911,4.0911,4.0911,0,0,4.0978,4.0968,4.0974,4.0972,4.0967,4.0975,4.0941,4.0951,4.0957,4.0923,4.0937,4.093,4.0922,4.0944,4.0953,4.0939,4.0993,4.0972,4.0976,4.0976,4.0989,4.0996,4.1003,4.0914,4.0913,4.0913,0,0,4.1026,4.102,4.1037,4.1033,4.1025,4.1013,4.1017,4.1004,4.0997,4.1012,4.0987,4.0994,4.1001,4.0997,4.0996,4.1046,4.1026,4.1048,4.1081,4.1094,4.1101,4.1106,4.1123,4.113,4.1051,4.1051,4.1051,0,4.1058,4.1069,4.1048,4.106,4.106,4.1031,4.1048,4.1045,4.1038,4.1039,4.1024,4.1033,4.1026,4.1047,4.1059,4.1059,4.1063,4.1048,4.1102,4.1107,4.1112,4.1128,4.1135,4.1054,4.1054,4.1053,4.1053,0,4.1108,4.1116,4.1131,4.1126,4.1128,4.1143,4.1124,4.1129,4.1114,4.1103,4.1119,4.111,4.1111,4.1115,4.11,4.1133,4.1125,4.1106,4.1078,4.1122,4.1137,4.1143,4.1058,4.1057,4.1056,4.1055,0,0,4.1181,4.1166,4.1171,4.1169,4.116,4.1166,4.118,4.1181,4.1185,4.1183,4.1193,4.1202,4.1185,4.1184,4.1169,4.1181,4.1221,4.1161,4.116,4.1171,4.1257,4.127,4.1278,4.1209,4.121,4.121,4.1257,0,4.1226,4.1248,4.1231,4.1256,4.1264,4.1237,4.1249,4.1245,4.1236,4.1241,4.1231,4.1237,4.1214,4.1213,4.1225,4.1214,4.1238,4.121,4.1218,4.1218,4.1219,4.1285,4.1299,4.1344,4.1263,4.1264,4.1265,0,4.1281,4.1282,4.1308,4.1298,4.1301,4.1312,4.1312,4.1318,4.1313,4.1305,4.1306,4.1288,4.1301,4.1275,4.1292,4.1274,4.1277,4.1272,4.1273,4.1272,4.1243,4.1285,4.1357,4.1364,4.1274,4.1273,4.1272,0,4.1331,4.1339,4.1356,4.1355,4.1344,4.1352,4.1348,4.1342,4.1344,4.1345,4.1346,4.1348,4.1349,4.1351,4.1335,4.1317,4.1354,4.1327,4.1348,4.1349,4.1355,4.1355,4.1428,4.1359,4.1359,4.1359,4.1359,0,4.1383,4.14,4.1378,4.1388,4.1407,4.1387,4.1406,4.1399,4.1394,4.1403,4.1381,4.1389,4.1368,4.1374,4.1362,4.1378,4.1379,4.1373,4.1369,4.1374,4.1375,4.1374,4.137,4.1361,4.1361,4.136,4.136,0,4.1441,4.1427,4.1443,4.1432,4.143,4.1444,4.1435,4.1444,4.1434,4.1445,4.1447,4.1431,4.1438,4.1422,4.1427,4.1418,4.1442,4.1434,4.1443,4.144,4.1462,4.146,4.1536,4.1545,4.1472,4.1473,4.1473,0,4.1474,4.1486,4.1477,4.1482,4.1479,4.1486,4.1489,4.1471,4.1474,4.1471,4.148,4.1486,4.1488,4.15,4.1489,4.1493,4.1484,4.151,4.1484,4.1489,4.1483,4.1482,4.1483,4.1515,4.1516,4.1517,4.1517,0,4.1534,4.1527,4.1532,4.1534,4.1538,4.1539,4.1539,4.1544,4.1525,4.153,4.1537,4.1539,4.1544,4.1549,4.1551,4.1546,4.1529,4.1526,4.1531,4.1536,4.154,4.1537,4.1457,4.1524,4.1523,4.1523,4.1523,4.1522,4.158,4.159,4.1585,4.1592,4.159,4.159,4.1598,4.159,4.1596,4.1599,4.1588,4.1597,4.1594,4.1594,4.1591,4.1599,4.1586,4.1594,4.1595,4.1597,4.16,4.1541,4.1599,4.1599,4.1598,4.1598,4.1598,0,4.1638,4.1635,4.1641,4.1641,4.1646,4.1631,4.163,4.1635,4.1644,4.1642,4.1645,4.1654,4.1659,4.165,4.1654,4.1661,4.1653,4.1663,4.1661,4.1661,4.1611,4.1606,4.1669,4.1669,4.1669,4.1669,4.1669,4.1669,4.1669,4.1686,4.1678,4.1694,4.169,4.1699,4.17,4.1701,4.1699,4.171,4.1714,4.1708,4.1704,4.1707,4.1712,4.1709,4.1711,4.1723,4.1717,4.1671,4.1664,4.1657,4.1652,4.1724,4.1724,4.1766,4.1766,4.1766]}]]